Starlink 32223

operational
NORAD ID: 60373 Int'l Des: 2024-138 Owner: SPXS Country: US Constellation: starlink
LEOCIRCULAR

Über Starlink 32223

Beschreibung wird geladen...

Live-Position

3D-Globus wird geladen...

Nächste Überflüge

Höhenverlauf

Altitude vs Time

uPlot chart will show altitude changes over time

Zweizeiliger Elementsatz

1 60373U 24138U 25353.20312946 .00008091 00000-0 28508-3 0 9996
2 60373 53.1603 323.5319 0002194 90.3800 269.7452 15.30193465 78200
Epoch: 19. Dez. 2025 • Age: 21 hours

Aktueller Status

Höhe 488.4 km
Geschwindigkeit 7.62 km/s
Subsatellitenpunkt -37.42°S, 51.48°E
Startdatum 4. Aug. 2024
Alter 1.3 years
Typ internet

Technische Details

Klassifizierung Payload
Masse 730.00 kg
Trockenmasse 700.00 kg
Gesamtmasse 730.00 kg
Länge 0.30 m
Durchmesser 4.10 m
Spannweite 29.00 m
Form Box + pan
Hersteller SPXS
Bus-Typ Starlink V2M
Phasenstatus In Orbit
Besitzer/Staat SPXS/US

Große Konstellationen

Loading constellations...